Time,TemperatureF,DewpointF,PressureIn,WindDirection,WindDirectionDegrees,WindSpeedMPH,WindSpeedGustMPH,Humidity,HourlyPrecipIn,Conditions,Clouds,dailyrainin,SoftwareType,DateUTC
2013-05-13 00:40:00,51.0,33.0,29.84,North,0,3.0,3.0,50,0.00,,,0.00,TxWx,2013-05-13 04:40:00,
2013-05-13 00:46:00,51.0,31.0,29.84,NW,315,3.0,4.0,48,0.00,,,0.00,TxWx,2013-05-13 04:46:00,
2013-05-13 00:51:00,52.0,31.0,29.84,South,180,4.0,4.0,46,0.00,,,0.00,TxWx,2013-05-13 04:51:00,
2013-05-13 00:56:00,52.0,31.0,29.85,NW,315,2.0,2.0,46,0.00,,,0.00,TxWx,2013-05-13 04:56:00,
2013-05-13 01:01:00,51.0,30.0,29.85,NE,45,1.0,1.0,47,0.00,,,0.00,TxWx,2013-05-13 05:01:00,
2013-05-13 01:06:00,51.0,31.0,29.85,NNE,22,3.0,3.0,48,0.00,,,0.00,TxWx,2013-05-13 05:06:00,
2013-05-13 01:13:00,50.0,32.0,29.85,NNE,22,2.0,3.0,51,0.00,,,0.00,TxWx,2013-05-13 05:13:00,
2013-05-13 01:18:00,50.0,34.0,29.85,NNE,22,1.0,1.0,53,0.00,,,0.00,TxWx,2013-05-13 05:18:00,
2013-05-13 01:24:00,50.0,33.0,29.85,North,0,1.0,1.0,53,0.00,,,0.00,TxWx,2013-05-13 05:24:00,
2013-05-13 01:29:00,51.0,33.0,29.85,ENE,67,6.0,6.0,50,0.00,,,0.00,TxWx,2013-05-13 05:29:00,
2013-05-13 01:34:00,51.0,31.0,29.85,North,0,2.0,3.0,48,0.00,,,0.00,TxWx,2013-05-13 05:34:00,
2013-05-13 01:39:00,51.0,31.0,29.85,NW,315,2.0,2.0,48,0.00,,,0.00,TxWx,2013-05-13 05:39:00,
2013-05-13 01:45:00,51.0,31.0,29.85,NNW,337,3.0,3.0,48,0.00,,,0.00,TxWx,2013-05-13 05:45:00,
2013-05-13 01:50:00,51.0,31.0,29.85,WSW,247,2.0,2.0,48,0.00,,,0.00,TxWx,2013-05-13 05:50:00,
2013-05-13 01:55:00,51.0,33.0,29.85,ESE,112,1.0,1.0,50,0.00,,,0.00,TxWx,2013-05-13 05:55:00,
2013-05-13 02:01:00,50.0,32.0,29.85,ENE,67,1.0,1.0,50,0.00,,,0.00,TxWx,2013-05-13 06:01:00,
2013-05-13 02:06:00,50.0,32.0,29.85,NE,45,1.0,1.0,50,0.00,,,0.00,TxWx,2013-05-13 06:06:00,
2013-05-13 02:12:00,50.0,32.0,29.85,ENE,67,1.0,1.0,51,0.00,,,0.00,TxWx,2013-05-13 06:12:00,
2013-05-13 02:17:00,50.0,32.0,29.85,NNW,337,2.0,3.0,50,0.00,,,0.00,TxWx,2013-05-13 06:17:00,
2013-05-13 02:22:00,50.0,33.0,29.85,NW,315,3.0,3.0,52,0.00,,,0.00,TxWx,2013-05-13 06:22:00,
2013-05-13 02:27:00,49.0,33.0,29.85,WNW,292,1.0,1.0,54,0.00,,,0.00,TxWx,2013-05-13 06:27:00,
2013-05-13 02:33:00,49.0,34.0,29.85,West,270,0.0,1.0,55,0.00,,,0.00,TxWx,2013-05-13 06:33:00,
2013-05-13 02:38:00,49.0,34.0,29.85,NE,45,0.0,1.0,57,0.00,,,0.00,TxWx,2013-05-13 06:38:00,
2013-05-13 02:43:00,49.0,35.0,29.85,WNW,292,2.0,3.0,58,0.00,,,0.00,TxWx,2013-05-13 06:43:00,
2013-05-13 02:48:00,49.0,35.0,29.85,ENE,67,3.0,3.0,58,0.00,,,0.00,TxWx,2013-05-13 06:48:00,
2013-05-13 02:53:00,49.0,35.0,29.85,WNW,292,1.0,2.0,58,0.00,,,0.00,TxWx,2013-05-13 06:53:00,
2013-05-13 02:59:00,49.0,35.0,29.85,NNE,22,2.0,3.0,59,0.00,,,0.00,TxWx,2013-05-13 06:59:00,
2013-05-13 03:04:00,49.0,34.0,29.85,NW,315,2.0,3.0,57,0.00,,,0.00,TxWx,2013-05-13 07:04:00,
2013-05-13 03:09:00,50.0,35.0,29.85,NE,45,1.0,1.0,56,0.00,,,0.00,TxWx,2013-05-13 07:09:00,
2013-05-13 03:14:00,50.0,33.0,29.85,NNE,22,5.0,6.0,53,0.00,,,0.00,TxWx,2013-05-13 07:14:00,
2013-05-13 03:19:00,51.0,33.0,29.86,ENE,67,1.0,1.0,51,0.00,,,0.00,TxWx,2013-05-13 07:19:00,
2013-05-13 03:24:00,51.0,32.0,29.86,ENE,67,5.0,7.0,49,0.00,,,0.00,TxWx,2013-05-13 07:24:00,
2013-05-13 03:30:00,51.0,30.0,29.86,NNE,22,2.0,4.0,47,0.00,,,0.00,TxWx,2013-05-13 07:30:00,
2013-05-13 03:35:00,51.0,29.0,29.85,East,90,4.0,5.0,45,0.00,,,0.00,TxWx,2013-05-13 07:35:00,
2013-05-13 03:40:00,51.0,29.0,29.86,ENE,67,6.0,7.0,44,0.00,,,0.00,TxWx,2013-05-13 07:40:00,
2013-05-13 03:45:00,51.0,28.0,29.85,NNE,22,5.0,6.0,43,0.00,,,0.00,TxWx,2013-05-13 07:45:00,
2013-05-13 03:50:00,51.0,30.0,29.86,East,90,3.0,5.0,46,0.00,,,0.00,TxWx,2013-05-13 07:50:00,
2013-05-13 03:56:00,51.0,29.0,29.86,ESE,112,8.0,9.0,44,0.00,,,0.00,TxWx,2013-05-13 07:56:00,
2013-05-13 04:01:00,51.0,28.0,29.86,NE,45,5.0,6.0,43,0.00,,,0.00,TxWx,2013-05-13 08:01:00,
2013-05-13 04:06:00,51.0,29.0,29.86,SE,135,3.0,5.0,44,0.00,,,0.00,TxWx,2013-05-13 08:06:00,
2013-05-13 04:11:00,51.0,28.0,29.87,ESE,112,5.0,5.0,43,0.00,,,0.00,TxWx,2013-05-13 08:11:00,
2013-05-13 04:16:00,51.0,27.0,29.87,ENE,67,9.0,11.0,42,0.00,,,0.00,TxWx,2013-05-13 08:16:00,
2013-05-13 04:22:00,51.0,27.0,29.87,NNW,337,5.0,10.0,41,0.00,,,0.00,TxWx,2013-05-13 08:22:00,
2013-05-13 04:27:00,51.0,27.0,29.87,East,90,7.0,8.0,41,0.00,,,0.00,TxWx,2013-05-13 08:27:00,
2013-05-13 04:32:00,51.0,27.0,29.87,ENE,67,6.0,7.0,42,0.00,,,0.00,TxWx,2013-05-13 08:32:00,
2013-05-13 04:37:00,50.0,26.0,29.87,NNE,22,3.0,3.0,42,0.00,,,0.00,TxWx,2013-05-13 08:37:00,
2013-05-13 04:42:00,50.0,27.0,29.87,ESE,112,3.0,3.0,43,0.00,,,0.00,TxWx,2013-05-13 08:42:00,
2013-05-13 04:47:00,50.0,27.0,29.87,ESE,112,5.0,5.0,43,0.00,,,0.00,TxWx,2013-05-13 08:47:00,
2013-05-13 04:52:00,50.0,27.0,29.87,East,90,8.0,8.0,42,0.00,,,0.00,TxWx,2013-05-13 08:52:00,
2013-05-13 04:58:00,50.0,27.0,29.87,East,90,6.0,7.0,43,0.00,,,0.00,TxWx,2013-05-13 08:58:00,
2013-05-13 05:03:00,50.0,27.0,29.87,SE,135,2.0,3.0,43,0.00,,,0.00,TxWx,2013-05-13 09:03:00,
2013-05-13 05:08:00,50.0,27.0,29.87,East,90,1.0,2.0,43,0.00,,,0.00,TxWx,2013-05-13 09:08:00,
2013-05-13 05:13:00,49.0,27.0,29.87,SE,135,5.0,5.0,44,0.00,,,0.00,TxWx,2013-05-13 09:13:00,
2013-05-13 05:18:00,49.0,27.0,29.87,SE,135,4.0,5.0,45,0.00,,,0.00,TxWx,2013-05-13 09:18:00,
2013-05-13 05:24:00,49.0,27.0,29.87,ESE,112,8.0,8.0,45,0.00,,,0.00,TxWx,2013-05-13 09:24:00,
2013-05-13 05:29:00,49.0,27.0,29.87,ESE,112,4.0,5.0,44,0.00,,,0.00,TxWx,2013-05-13 09:29:00,
2013-05-13 05:34:00,49.0,27.0,29.88,ESE,112,4.0,6.0,45,0.00,,,0.00,TxWx,2013-05-13 09:34:00,
2013-05-13 05:39:00,49.0,27.0,29.88,ENE,67,6.0,6.0,45,0.00,,,0.00,TxWx,2013-05-13 09:39:00,
2013-05-13 05:44:00,48.0,26.0,29.88,East,90,5.0,6.0,45,0.00,,,0.00,TxWx,2013-05-13 09:44:00,
2013-05-13 05:49:00,48.0,26.0,29.88,ESE,112,10.0,10.0,45,0.00,,,0.00,TxWx,2013-05-13 09:49:00,
2013-05-13 05:55:00,48.0,26.0,29.88,ESE,112,7.0,9.0,44,0.00,,,0.00,TxWx,2013-05-13 09:55:00,
2013-05-13 06:00:00,48.0,26.0,29.89,East,90,5.0,8.0,44,0.00,,,0.00,TxWx,2013-05-13 10:00:00,
2013-05-13 06:06:00,48.0,26.0,29.89,NE,45,3.0,7.0,45,0.00,,,0.00,TxWx,2013-05-13 10:06:00,
2013-05-13 06:11:00,48.0,26.0,29.89,East,90,8.0,8.0,45,0.00,,,0.00,TxWx,2013-05-13 10:11:00,
2013-05-13 06:16:00,48.0,26.0,29.89,ESE,112,9.0,9.0,45,0.00,,,0.00,TxWx,2013-05-13 10:16:00,
2013-05-13 06:21:00,48.0,27.0,29.90,NE,45,2.0,2.0,45,0.00,,,0.00,TxWx,2013-05-13 10:21:00,
2013-05-13 06:26:00,48.0,27.0,29.89,NNE,22,1.0,2.0,46,0.00,,,0.00,TxWx,2013-05-13 10:26:00,
2013-05-13 06:31:00,48.0,26.0,29.90,East,90,4.0,5.0,45,0.00,,,0.00,TxWx,2013-05-13 10:31:00,
2013-05-13 06:36:00,48.0,26.0,29.90,NE,45,4.0,5.0,45,0.00,,,0.00,TxWx,2013-05-13 10:36:00,
2013-05-13 06:41:00,49.0,28.0,29.90,East,90,3.0,4.0,45,0.00,,,0.00,TxWx,2013-05-13 10:41:00,
2013-05-13 06:47:00,49.0,28.0,29.91,East,90,5.0,5.0,45,0.00,,,0.00,TxWx,2013-05-13 10:47:00,
2013-05-13 06:52:00,49.0,28.0,29.91,North,0,2.0,3.0,46,0.00,,,0.00,TxWx,2013-05-13 10:52:00,
2013-05-13 06:57:00,49.0,28.0,29.91,NNE,22,5.0,6.0,46,0.00,,,0.00,TxWx,2013-05-13 10:57:00,
2013-05-13 07:02:00,49.0,28.0,29.91,NE,45,6.0,6.0,46,0.00,,,0.00,TxWx,2013-05-13 11:02:00,
2013-05-13 07:08:00,49.0,28.0,29.92,SSE,157,2.0,6.0,45,0.00,,,0.00,TxWx,2013-05-13 11:08:00,
2013-05-13 07:13:00,49.0,28.0,29.91,NE,45,5.0,9.0,46,0.00,,,0.00,TxWx,2013-05-13 11:13:00,
2013-05-13 07:18:00,49.0,28.0,29.91,NNE,22,3.0,4.0,47,0.00,,,0.00,TxWx,2013-05-13 11:18:00,
2013-05-13 07:23:00,49.0,28.0,29.91,East,90,3.0,4.0,46,0.00,,,0.00,TxWx,2013-05-13 11:23:00,
2013-05-13 07:29:00,49.0,28.0,29.92,ESE,112,3.0,3.0,46,0.00,,,0.00,TxWx,2013-05-13 11:29:00,
2013-05-13 07:34:00,49.0,28.0,29.92,NW,315,2.0,3.0,47,0.00,,,0.00,TxWx,2013-05-13 11:34:00,
2013-05-13 07:39:00,49.0,29.0,29.92,North,0,1.0,1.0,47,0.00,,,0.00,TxWx,2013-05-13 11:39:00,
2013-05-13 07:44:00,49.0,29.0,29.92,NNE,22,3.0,3.0,47,0.00,,,0.00,TxWx,2013-05-13 11:44:00,
2013-05-13 07:49:00,49.0,28.0,29.93,SW,225,3.0,3.0,46,0.00,,,0.00,TxWx,2013-05-13 11:49:00,
2013-05-13 07:54:00,49.0,28.0,29.93,ENE,67,3.0,3.0,46,0.00,,,0.00,TxWx,2013-05-13 11:54:00,
2013-05-13 08:00:00,49.0,28.0,29.93,East,90,10.0,10.0,46,0.00,,,0.00,TxWx,2013-05-13 12:00:00,
2013-05-13 08:05:00,49.0,28.0,29.93,NNE,22,4.0,5.0,45,0.00,,,0.00,TxWx,2013-05-13 12:05:00,
2013-05-13 08:10:00,50.0,28.0,29.93,ENE,67,3.0,3.0,45,0.00,,,0.00,TxWx,2013-05-13 12:10:00,
2013-05-13 08:15:00,50.0,29.0,29.93,North,0,5.0,5.0,46,0.00,,,0.00,TxWx,2013-05-13 12:15:00,
2013-05-13 08:20:00,50.0,28.0,29.93,NE,45,5.0,6.0,44,0.00,,,0.00,TxWx,2013-05-13 12:20:00,
2013-05-13 08:26:00,50.0,28.0,29.93,NNE,22,3.0,5.0,45,0.00,,,0.00,TxWx,2013-05-13 12:26:00,
2013-05-13 08:31:00,50.0,28.0,29.94,NE,45,8.0,8.0,44,0.00,,,0.00,TxWx,2013-05-13 12:31:00,
2013-05-13 08:36:00,50.0,28.0,29.93,ENE,67,5.0,5.0,44,0.00,,,0.00,TxWx,2013-05-13 12:36:00,
2013-05-13 08:41:00,50.0,28.0,29.93,NE,45,6.0,7.0,44,0.00,,,0.00,TxWx,2013-05-13 12:41:00,
2013-05-13 08:46:00,51.0,29.0,29.93,ESE,112,3.0,5.0,44,0.00,,,0.00,TxWx,2013-05-13 12:46:00,
2013-05-13 08:52:00,51.0,29.0,29.93,ENE,67,6.0,8.0,44,0.00,,,0.00,TxWx,2013-05-13 12:52:00,
2013-05-13 08:57:00,51.0,29.0,29.94,SE,135,3.0,4.0,44,0.00,,,0.00,TxWx,2013-05-13 12:57:00,
2013-05-13 09:02:00,51.0,28.0,29.94,ENE,67,9.0,9.0,43,0.00,,,0.00,TxWx,2013-05-13 13:02:00,
2013-05-13 09:08:00,50.0,27.0,29.94,ESE,112,6.0,8.0,42,0.00,,,0.00,TxWx,2013-05-13 13:08:00,
2013-05-13 09:13:00,50.0,27.0,29.94,East,90,8.0,8.0,43,0.00,,,0.00,TxWx,2013-05-13 13:13:00,
2013-05-13 09:18:00,50.0,27.0,29.94,ESE,112,4.0,4.0,43,0.00,,,0.00,TxWx,2013-05-13 13:18:00,
2013-05-13 09:23:00,50.0,27.0,29.94,NE,45,3.0,3.0,42,0.00,,,0.00,TxWx,2013-05-13 13:23:00,
2013-05-13 09:29:00,50.0,27.0,29.94,NNE,22,5.0,5.0,42,0.00,,,0.00,TxWx,2013-05-13 13:29:00,
2013-05-13 09:34:00,50.0,27.0,29.94,ENE,67,3.0,4.0,42,0.00,,,0.00,TxWx,2013-05-13 13:34:00,
2013-05-13 09:39:00,51.0,28.0,29.95,NNW,337,3.0,4.0,43,0.00,,,0.00,TxWx,2013-05-13 13:39:00,
2013-05-13 09:44:00,51.0,28.0,29.95,ENE,67,6.0,6.0,43,0.00,,,0.00,TxWx,2013-05-13 13:44:00,
2013-05-13 09:49:00,51.0,28.0,29.95,NNW,337,3.0,3.0,43,0.00,,,0.00,TxWx,2013-05-13 13:49:00,
2013-05-13 09:55:00,51.0,28.0,29.95,NNW,337,5.0,6.0,43,0.00,,,0.00,TxWx,2013-05-13 13:55:00,
2013-05-13 10:00:00,52.0,29.0,29.95,NE,45,5.0,7.0,43,0.00,,,0.00,TxWx,2013-05-13 14:00:00,
2013-05-13 10:06:00,52.0,28.0,29.94,ENE,67,6.0,6.0,41,0.00,,,0.00,TxWx,2013-05-13 14:06:00,
2013-05-13 10:11:00,52.0,28.0,29.94,West,270,6.0,6.0,42,0.00,,,0.00,TxWx,2013-05-13 14:11:00,
2013-05-13 10:16:00,52.0,28.0,29.95,NNE,22,5.0,7.0,41,0.00,,,0.00,TxWx,2013-05-13 14:16:00,
2013-05-13 10:21:00,52.0,29.0,29.95,ENE,67,4.0,5.0,42,0.00,,,0.00,TxWx,2013-05-13 14:21:00,
2013-05-13 10:27:00,51.0,28.0,29.96,East,90,3.0,3.0,42,0.00,,,0.00,TxWx,2013-05-13 14:27:00,
2013-05-13 10:32:00,51.0,28.0,29.95,SE,135,5.0,6.0,43,0.00,,,0.00,TxWx,2013-05-13 14:32:00,
2013-05-13 10:37:00,51.0,28.0,29.96,East,90,3.0,4.0,43,0.00,,,0.00,TxWx,2013-05-13 14:37:00,
2013-05-13 10:42:00,51.0,28.0,29.96,NNE,22,8.0,12.0,42,0.00,,,0.00,TxWx,2013-05-13 14:42:00,
2013-05-13 10:48:00,51.0,28.0,29.96,NNW,337,4.0,5.0,43,0.00,,,0.00,TxWx,2013-05-13 14:48:00,
2013-05-13 10:53:00,52.0,29.0,29.96,East,90,6.0,8.0,43,0.00,,,0.00,TxWx,2013-05-13 14:53:00,
2013-05-13 10:59:00,51.0,28.0,29.96,East,90,4.0,5.0,43,0.00,,,0.00,TxWx,2013-05-13 14:59:00,
2013-05-13 11:04:00,52.0,30.0,29.96,SE,135,4.0,4.0,45,0.00,,,0.00,TxWx,2013-05-13 15:04:00,
2013-05-13 11:09:00,52.0,30.0,29.96,SE,135,7.0,7.0,44,0.00,,,0.00,TxWx,2013-05-13 15:09:00,
2013-05-13 11:14:00,52.0,29.0,29.96,NW,315,4.0,5.0,44,0.00,,,0.00,TxWx,2013-05-13 15:14:00,
2013-05-13 11:19:00,53.0,30.0,29.96,West,270,2.0,3.0,44,0.00,,,0.00,TxWx,2013-05-13 15:19:00,
2013-05-13 11:24:00,54.0,30.0,29.96,SE,135,3.0,4.0,42,0.00,,,0.00,TxWx,2013-05-13 15:24:00,
2013-05-13 11:30:00,54.0,29.0,29.96,NW,315,2.0,3.0,41,0.00,,,0.00,TxWx,2013-05-13 15:30:00,
2013-05-13 11:35:00,54.0,29.0,29.96,East,90,5.0,5.0,40,0.00,,,0.00,TxWx,2013-05-13 15:35:00,
2013-05-13 11:40:00,53.0,28.0,29.96,WSW,247,1.0,2.0,40,0.00,,,0.00,TxWx,2013-05-13 15:40:00,
2013-05-13 11:45:00,53.0,28.0,29.96,NNE,22,3.0,3.0,40,0.00,,,0.00,TxWx,2013-05-13 15:45:00,
2013-05-13 11:50:00,53.0,28.0,29.96,NE,45,3.0,3.0,40,0.00,,,0.00,TxWx,2013-05-13 15:50:00,
2013-05-13 11:55:00,54.0,29.0,29.96,NNE,22,6.0,6.0,40,0.00,,,0.00,TxWx,2013-05-13 15:55:00,
2013-05-13 12:01:00,54.0,29.0,29.96,NE,45,6.0,8.0,40,0.00,,,0.00,TxWx,2013-05-13 16:01:00,
2013-05-13 12:06:00,54.0,29.0,29.96,NW,315,3.0,5.0,40,0.00,,,0.00,TxWx,2013-05-13 16:06:00,
2013-05-13 12:12:00,54.0,29.0,29.96,NNW,337,3.0,4.0,41,0.00,,,0.00,TxWx,2013-05-13 16:12:00,
2013-05-13 12:17:00,54.0,29.0,29.96,North,0,2.0,3.0,40,0.00,,,0.00,TxWx,2013-05-13 16:17:00,
2013-05-13 12:22:00,54.0,28.0,29.96,NE,45,10.0,11.0,39,0.00,,,0.00,TxWx,2013-05-13 16:22:00,
2013-05-13 12:28:00,54.0,28.0,29.96,NE,45,6.0,6.0,39,0.00,,,0.00,TxWx,2013-05-13 16:28:00,
2013-05-13 12:33:00,53.0,28.0,29.96,NNW,337,4.0,5.0,40,0.00,,,0.00,TxWx,2013-05-13 16:33:00,
2013-05-13 12:38:00,53.0,27.0,29.96,NNE,22,4.0,5.0,39,0.00,,,0.00,TxWx,2013-05-13 16:38:00,
2013-05-13 12:44:00,54.0,29.0,29.96,NE,45,5.0,5.0,40,0.00,,,0.00,TxWx,2013-05-13 16:44:00,
2013-05-13 12:49:00,54.0,29.0,29.96,ENE,67,5.0,5.0,40,0.00,,,0.00,TxWx,2013-05-13 16:49:00,
2013-05-13 12:54:00,54.0,28.0,29.96,North,0,3.0,3.0,39,0.00,,,0.00,TxWx,2013-05-13 16:54:00,
2013-05-13 13:00:00,54.0,29.0,29.96,ENE,67,2.0,2.0,39,0.00,,,0.00,TxWx,2013-05-13 17:00:00,
2013-05-13 13:05:00,54.0,29.0,29.96,NNE,22,7.0,8.0,40,0.00,,,0.00,TxWx,2013-05-13 17:05:00,
2013-05-13 13:10:00,54.0,28.0,29.96,ENE,67,3.0,5.0,39,0.00,,,0.00,TxWx,2013-05-13 17:10:00,
2013-05-13 13:15:00,54.0,29.0,29.96,East,90,3.0,3.0,40,0.00,,,0.00,TxWx,2013-05-13 17:15:00,
2013-05-13 13:21:00,54.0,29.0,29.96,East,90,8.0,8.0,39,0.00,,,0.00,TxWx,2013-05-13 17:21:00,
2013-05-13 13:26:00,54.0,29.0,29.96,ESE,112,3.0,5.0,40,0.00,,,0.00,TxWx,2013-05-13 17:26:00,
2013-05-13 13:31:00,54.0,29.0,29.96,East,90,5.0,5.0,40,0.00,,,0.00,TxWx,2013-05-13 17:31:00,
2013-05-13 13:37:00,54.0,29.0,29.96,ENE,67,3.0,4.0,40,0.00,,,0.00,TxWx,2013-05-13 17:37:00,
2013-05-13 13:42:00,54.0,29.0,29.96,NE,45,3.0,3.0,40,0.00,,,0.00,TxWx,2013-05-13 17:42:00,
2013-05-13 13:48:00,54.0,29.0,29.96,East,90,6.0,8.0,40,0.00,,,0.00,TxWx,2013-05-13 17:48:00,
2013-05-13 13:53:00,53.0,28.0,29.97,ENE,67,5.0,7.0,40,0.00,,,0.00,TxWx,2013-05-13 17:53:00,
2013-05-13 13:58:00,53.0,29.0,29.96,SSE,157,7.0,12.0,41,0.00,,,0.00,TxWx,2013-05-13 17:58:00,
2013-05-13 14:03:00,53.0,29.0,29.97,ESE,112,6.0,7.0,41,0.00,,,0.00,TxWx,2013-05-13 18:03:00,
2013-05-13 14:08:00,53.0,29.0,29.97,SE,135,6.0,8.0,41,0.00,,,0.00,TxWx,2013-05-13 18:08:00,
2013-05-13 14:14:00,53.0,29.0,29.97,WNW,292,2.0,3.0,42,0.00,,,0.00,TxWx,2013-05-13 18:14:00,
2013-05-13 14:19:00,53.0,29.0,29.97,East,90,6.0,8.0,42,0.00,,,0.00,TxWx,2013-05-13 18:19:00,
2013-05-13 14:25:00,53.0,29.0,29.97,East,90,4.0,7.0,42,0.00,,,0.00,TxWx,2013-05-13 18:25:00,
2013-05-13 14:30:00,53.0,29.0,29.97,ESE,112,6.0,8.0,42,0.00,,,0.00,TxWx,2013-05-13 18:30:00,
2013-05-13 14:35:00,53.0,29.0,29.97,ESE,112,12.0,12.0,42,0.00,,,0.00,TxWx,2013-05-13 18:35:00,
2013-05-13 14:40:00,53.0,29.0,29.97,East,90,6.0,6.0,41,0.00,,,0.00,TxWx,2013-05-13 18:40:00,
2013-05-13 14:46:00,53.0,30.0,29.97,SE,135,3.0,4.0,43,0.00,,,0.00,TxWx,2013-05-13 18:46:00,
2013-05-13 14:51:00,53.0,29.0,29.96,NE,45,5.0,8.0,42,0.00,,,0.00,TxWx,2013-05-13 18:51:00,
2013-05-13 14:56:00,54.0,30.0,29.96,ENE,67,4.0,4.0,41,0.00,,,0.00,TxWx,2013-05-13 18:56:00,
2013-05-13 15:01:00,39.0,30.0,30.04,WNW,292,0.0,0.0,74,0.00,,,0.00,TxWx,2013-05-13 19:01:00,
2013-05-13 15:02:00,54.0,29.0,29.97,East,90,8.0,10.0,40,0.00,,,0.00,TxWx,2013-05-13 19:02:00,
2013-05-13 15:03:00,39.0,30.0,30.04,East,90,1.0,1.0,74,0.00,,,0.00,TxWx,2013-05-13 19:03:00,
2013-05-13 15:04:00,39.0,30.0,30.04,NW,315,1.0,1.0,74,0.00,,,0.00,TxWx,2013-05-13 19:04:00,
2013-05-13 15:05:00,39.0,30.0,30.04,WNW,292,1.0,1.0,74,0.00,,,0.00,TxWx,2013-05-13 19:05:00,
2013-05-13 15:06:00,39.0,31.0,30.04,SW,225,1.0,1.0,75,0.00,,,0.00,TxWx,2013-05-13 19:06:00,
2013-05-13 15:07:00,54.0,29.0,29.97,ENE,67,5.0,6.0,40,0.00,,,0.00,TxWx,2013-05-13 19:07:00,
2013-05-13 15:08:00,39.0,31.0,30.04,NNW,337,0.0,0.0,75,0.00,,,0.00,TxWx,2013-05-13 19:08:00,
2013-05-13 15:09:00,39.0,31.0,30.04,NW,315,0.0,0.0,75,0.00,,,0.00,TxWx,2013-05-13 19:09:00,
2013-05-13 15:10:00,39.0,31.0,30.04,SSW,202,0.0,0.0,75,0.00,,,0.00,TxWx,2013-05-13 19:10:00,
2013-05-13 15:11:00,39.0,31.0,30.04,West,270,0.0,0.0,75,0.00,,,0.00,TxWx,2013-05-13 19:11:00,
2013-05-13 15:12:00,54.0,29.0,29.97,ESE,112,7.0,8.0,40,0.00,,,0.00,TxWx,2013-05-13 19:12:00,
2013-05-13 15:13:00,39.0,31.0,30.04,ENE,67,0.0,0.0,75,0.00,,,0.00,TxWx,2013-05-13 19:13:00,
2013-05-13 15:14:00,39.0,31.0,30.04,ENE,67,0.0,0.0,75,0.00,,,0.00,TxWx,2013-05-13 19:14:00,
2013-05-13 15:15:00,39.0,31.0,30.04,ENE,67,0.0,0.0,75,0.00,,,0.00,TxWx,2013-05-13 19:15:00,
2013-05-13 15:16:00,39.0,31.0,30.04,NNE,22,0.0,0.0,75,0.00,,,0.00,TxWx,2013-05-13 19:16:00,
2013-05-13 15:17:00,39.0,31.0,30.04,NNE,22,0.0,1.0,75,0.00,,,0.00,TxWx,2013-05-13 19:17:00,
2013-05-13 15:18:00,54.0,29.0,29.96,SE,135,8.0,8.0,40,0.00,,,0.00,TxWx,2013-05-13 19:18:00,
2013-05-13 15:19:00,39.0,31.0,30.04,West,270,0.0,0.0,76,0.00,,,0.00,TxWx,2013-05-13 19:19:00,
2013-05-13 15:20:00,39.0,31.0,30.05,NNE,22,0.0,0.0,76,0.00,,,0.00,TxWx,2013-05-13 19:20:00,
2013-05-13 15:21:00,39.0,31.0,30.04,WNW,292,0.0,0.0,76,0.00,,,0.00,TxWx,2013-05-13 19:21:00,
2013-05-13 15:22:00,39.0,31.0,30.04,WNW,292,0.0,0.0,76,0.00,,,0.00,TxWx,2013-05-13 19:22:00,
2013-05-13 15:23:00,54.0,29.0,29.96,East,90,3.0,3.0,40,0.00,,,0.00,TxWx,2013-05-13 19:23:00,
2013-05-13 15:24:00,39.0,31.0,30.04,NNE,22,0.0,1.0,76,0.00,,,0.00,TxWx,2013-05-13 19:24:00,
2013-05-13 15:25:00,39.0,32.0,30.04,NW,315,0.0,1.0,76,0.00,,,0.00,TxWx,2013-05-13 19:25:00,
2013-05-13 15:26:00,39.0,32.0,30.04,NNW,337,1.0,1.0,76,0.00,,,0.00,TxWx,2013-05-13 19:26:00,
2013-05-13 15:27:00,39.0,32.0,30.04,NW,315,0.0,0.0,76,0.00,,,0.00,TxWx,2013-05-13 19:27:00,
2013-05-13 15:28:00,54.0,29.0,29.96,NNE,22,9.0,11.0,40,0.00,,,0.00,TxWx,2013-05-13 19:28:00,
2013-05-13 15:29:00,39.0,32.0,30.04,NNW,337,0.0,0.0,76,0.00,,,0.00,TxWx,2013-05-13 19:29:00,
2013-05-13 15:30:00,39.0,32.0,30.04,NNW,337,0.0,0.0,76,0.00,,,0.00,TxWx,2013-05-13 19:30:00,
2013-05-13 15:31:00,39.0,32.0,30.04,NW,315,1.0,1.0,76,0.00,,,0.00,TxWx,2013-05-13 19:31:00,
2013-05-13 15:32:00,39.0,32.0,30.04,NW,315,0.0,1.0,77,0.00,,,0.00,TxWx,2013-05-13 19:32:00,
2013-05-13 15:33:00,54.0,29.0,29.96,East,90,3.0,5.0,40,0.00,,,0.00,TxWx,2013-05-13 19:33:00,
2013-05-13 15:34:00,39.0,32.0,30.04,NE,45,1.0,1.0,77,0.00,,,0.00,TxWx,2013-05-13 19:34:00,
2013-05-13 15:35:00,39.0,32.0,30.04,East,90,0.0,0.0,77,0.00,,,0.00,TxWx,2013-05-13 19:35:00,
2013-05-13 15:36:00,39.0,32.0,30.04,WSW,247,1.0,1.0,77,0.00,,,0.00,TxWx,2013-05-13 19:36:00,
2013-05-13 15:37:00,39.0,32.0,30.04,WSW,247,1.0,3.0,77,0.00,,,0.00,TxWx,2013-05-13 19:37:00,
2013-05-13 15:38:00,55.0,30.0,29.96,NNW,337,5.0,5.0,41,0.00,,,0.00,TxWx,2013-05-13 19:38:00,
2013-05-13 15:39:00,38.0,30.0,30.04,ENE,67,1.0,2.0,77,0.00,,,0.00,TxWx,2013-05-13 19:39:00,
2013-05-13 15:40:00,38.0,30.0,30.04,NNE,22,1.0,1.0,77,0.00,,,0.00,TxWx,2013-05-13 19:40:00,
2013-05-13 15:41:00,38.0,30.0,30.04,ENE,67,1.0,1.0,77,0.00,,,0.00,TxWx,2013-05-13 19:41:00,
2013-05-13 15:42:00,38.0,30.0,30.04,NNE,22,0.0,0.0,77,0.00,,,0.00,TxWx,2013-05-13 19:42:00,
2013-05-13 15:43:00,38.0,30.0,30.04,WSW,247,1.0,1.0,77,0.00,,,0.00,TxWx,2013-05-13 19:43:00,
2013-05-13 15:44:00,56.0,31.0,29.96,East,90,3.0,4.0,40,0.00,,,0.00,TxWx,2013-05-13 19:44:00,
2013-05-13 15:45:00,38.0,30.0,30.04,NE,45,1.0,2.0,77,0.00,,,0.00,TxWx,2013-05-13 19:45:00,
2013-05-13 15:46:00,38.0,31.0,30.04,West,270,1.0,1.0,78,0.00,,,0.00,TxWx,2013-05-13 19:46:00,
2013-05-13 15:48:00,38.0,31.0,30.04,East,90,3.0,4.0,78,0.00,,,0.00,TxWx,2013-05-13 19:48:00,
2013-05-13 15:49:00,56.0,29.0,29.96,ESE,112,5.0,5.0,38,0.00,,,0.00,TxWx,2013-05-13 19:49:00,
2013-05-13 15:50:00,38.0,31.0,30.04,West,270,3.0,3.0,78,0.00,,,0.00,TxWx,2013-05-13 19:50:00,
2013-05-13 15:51:00,38.0,31.0,30.04,WNW,292,2.0,3.0,78,0.00,,,0.00,TxWx,2013-05-13 19:51:00,
2013-05-13 15:52:00,38.0,31.0,30.04,NNE,22,3.0,3.0,78,0.00,,,0.00,TxWx,2013-05-13 19:52:00,
2013-05-13 15:53:00,38.0,31.0,30.04,NNE,22,0.0,0.0,78,0.00,,,0.00,TxWx,2013-05-13 19:53:00,
2013-05-13 15:54:00,55.0,29.0,29.96,SE,135,6.0,8.0,38,0.00,,,0.00,TxWx,2013-05-13 19:54:00,
2013-05-13 15:56:00,38.0,31.0,30.04,NNE,22,1.0,1.0,79,0.00,,,0.00,TxWx,2013-05-13 19:56:00,
2013-05-13 16:00:00,55.0,29.0,29.96,ESE,112,3.0,4.0,39,0.00,,,0.00,TxWx,2013-05-13 20:00:00,
2013-05-13 16:05:00,55.0,29.0,29.96,ENE,67,5.0,5.0,39,0.00,,,0.00,TxWx,2013-05-13 20:05:00,
2013-05-13 16:10:00,54.0,29.0,29.96,SE,135,5.0,7.0,40,0.00,,,0.00,TxWx,2013-05-13 20:10:00,
2013-05-13 16:15:00,54.0,29.0,29.96,SE,135,6.0,6.0,39,0.00,,,0.00,TxWx,2013-05-13 20:15:00,
2013-05-13 16:20:00,55.0,30.0,29.96,East,90,5.0,5.0,40,0.00,,,0.00,TxWx,2013-05-13 20:20:00,
2013-05-13 16:26:00,55.0,30.0,29.96,SSE,157,6.0,7.0,40,0.00,,,0.00,TxWx,2013-05-13 20:26:00,
2013-05-13 16:31:00,54.0,29.0,29.96,SSE,157,5.0,6.0,40,0.00,,,0.00,TxWx,2013-05-13 20:31:00,
2013-05-13 16:36:00,54.0,29.0,29.96,East,90,7.0,8.0,40,0.00,,,0.00,TxWx,2013-05-13 20:36:00,
2013-05-13 16:41:00,54.0,29.0,29.96,East,90,5.0,6.0,40,0.00,,,0.00,TxWx,2013-05-13 20:41:00,
2013-05-13 16:47:00,54.0,29.0,29.96,East,90,8.0,9.0,40,0.00,,,0.00,TxWx,2013-05-13 20:47:00,
2013-05-13 16:52:00,54.0,29.0,29.96,SE,135,14.0,14.0,40,0.00,,,0.00,TxWx,2013-05-13 20:52:00,
2013-05-13 16:57:00,54.0,29.0,29.96,SE,135,6.0,8.0,41,0.00,,,0.00,TxWx,2013-05-13 20:57:00,
2013-05-13 17:02:00,54.0,29.0,29.96,ESE,112,7.0,10.0,41,0.00,,,0.00,TxWx,2013-05-13 21:02:00,
2013-05-13 17:07:00,54.0,30.0,29.96,ENE,67,6.0,8.0,41,0.00,,,0.00,TxWx,2013-05-13 21:07:00,
2013-05-13 17:13:00,54.0,29.0,29.96,ESE,112,5.0,6.0,41,0.00,,,0.00,TxWx,2013-05-13 21:13:00,
2013-05-13 17:18:00,54.0,29.0,29.96,ESE,112,9.0,9.0,40,0.00,,,0.00,TxWx,2013-05-13 21:18:00,
2013-05-13 17:23:00,54.0,29.0,29.95,SE,135,7.0,7.0,41,0.00,,,0.00,TxWx,2013-05-13 21:23:00,
2013-05-13 17:28:00,54.0,29.0,29.95,ESE,112,3.0,3.0,40,0.00,,,0.00,TxWx,2013-05-13 21:28:00,
2013-05-13 17:33:00,54.0,29.0,29.95,SSE,157,4.0,4.0,40,0.00,,,0.00,TxWx,2013-05-13 21:33:00,
2013-05-13 17:38:00,54.0,29.0,29.95,East,90,13.0,14.0,40,0.00,,,0.00,TxWx,2013-05-13 21:38:00,
2013-05-13 17:43:00,54.0,29.0,29.96,SE,135,9.0,12.0,40,0.00,,,0.00,TxWx,2013-05-13 21:43:00,
2013-05-13 17:49:00,54.0,29.0,29.96,ESE,112,12.0,15.0,40,0.00,,,0.00,TxWx,2013-05-13 21:49:00,
2013-05-13 17:54:00,53.0,28.0,29.96,NNE,22,5.0,8.0,40,0.00,,,0.00,TxWx,2013-05-13 21:54:00,
2013-05-13 17:59:00,53.0,29.0,29.96,ESE,112,6.0,6.0,41,0.00,,,0.00,TxWx,2013-05-13 21:59:00,
2013-05-13 18:04:00,53.0,29.0,29.96,East,90,6.0,6.0,42,0.00,,,0.00,TxWx,2013-05-13 22:04:00,
2013-05-13 18:09:00,53.0,29.0,29.96,SE,135,8.0,8.0,42,0.00,,,0.00,TxWx,2013-05-13 22:09:00,
2013-05-13 18:14:00,53.0,30.0,29.96,ESE,112,7.0,9.0,43,0.00,,,0.00,TxWx,2013-05-13 22:14:00,
2013-05-13 18:19:00,53.0,29.0,29.96,East,90,5.0,5.0,42,0.00,,,0.00,TxWx,2013-05-13 22:19:00,
2013-05-13 18:25:00,54.0,30.0,29.96,East,90,8.0,9.0,41,0.00,,,0.00,TxWx,2013-05-13 22:25:00,
2013-05-13 18:30:00,54.0,29.0,29.96,ENE,67,8.0,9.0,41,0.00,,,0.00,TxWx,2013-05-13 22:30:00,
2013-05-13 18:35:00,54.0,30.0,29.97,South,180,3.0,4.0,41,0.00,,,0.00,TxWx,2013-05-13 22:35:00,
2013-05-13 18:41:00,54.0,29.0,29.97,NNE,22,8.0,8.0,41,0.00,,,0.00,TxWx,2013-05-13 22:41:00,
2013-05-13 18:46:00,53.0,29.0,29.97,East,90,2.0,3.0,42,0.00,,,0.00,TxWx,2013-05-13 22:46:00,
2013-05-13 18:51:00,53.0,29.0,29.97,East,90,6.0,7.0,42,0.00,,,0.00,TxWx,2013-05-13 22:51:00,
2013-05-13 18:57:00,54.0,31.0,29.97,ENE,67,3.0,4.0,43,0.00,,,0.00,TxWx,2013-05-13 22:57:00,
2013-05-13 19:02:00,54.0,30.0,29.97,East,90,4.0,8.0,42,0.00,,,0.00,TxWx,2013-05-13 23:02:00,
2013-05-13 19:07:00,54.0,31.0,29.97,East,90,5.0,5.0,43,0.00,,,0.00,TxWx,2013-05-13 23:07:00,
2013-05-13 19:12:00,53.0,30.0,29.97,East,90,10.0,10.0,43,0.00,,,0.00,TxWx,2013-05-13 23:12:00,
2013-05-13 19:18:00,53.0,30.0,29.98,East,90,10.0,10.0,43,0.00,,,0.00,TxWx,2013-05-13 23:18:00,
2013-05-13 19:23:00,53.0,30.0,29.98,ESE,112,5.0,6.0,43,0.00,,,0.00,TxWx,2013-05-13 23:23:00,
2013-05-13 19:28:00,53.0,30.0,29.98,SE,135,4.0,4.0,44,0.00,,,0.00,TxWx,2013-05-13 23:28:00,
2013-05-13 19:33:00,53.0,31.0,29.98,East,90,7.0,7.0,44,0.00,,,0.00,TxWx,2013-05-13 23:33:00,
2013-05-13 19:38:00,53.0,31.0,29.98,East,90,5.0,5.0,45,0.00,,,0.00,TxWx,2013-05-13 23:38:00,
2013-05-13 19:43:00,53.0,32.0,29.99,East,90,3.0,4.0,45,0.00,,,0.00,TxWx,2013-05-13 23:43:00,
2013-05-13 19:49:00,52.0,30.0,29.99,East,90,4.0,4.0,45,0.00,,,0.00,TxWx,2013-05-13 23:49:00,
2013-05-13 19:54:00,52.0,30.0,29.99,SE,135,2.0,3.0,45,0.00,,,0.00,TxWx,2013-05-13 23:54:00,
2013-05-13 20:00:00,52.0,31.0,29.99,East,90,3.0,4.0,46,0.00,,,0.00,TxWx,2013-05-14 00:00:00,
2013-05-13 20:05:00,52.0,31.0,29.99,North,0,1.0,3.0,46,0.00,,,0.00,TxWx,2013-05-14 00:05:00,
2013-05-13 20:10:00,52.0,31.0,29.99,ENE,67,3.0,4.0,46,0.00,,,0.00,TxWx,2013-05-14 00:10:00,
2013-05-13 20:16:00,52.0,31.0,29.99,ENE,67,2.0,3.0,46,0.00,,,0.00,TxWx,2013-05-14 00:16:00,
2013-05-13 20:21:00,52.0,32.0,29.99,East,90,3.0,3.0,47,0.00,,,0.00,TxWx,2013-05-14 00:21:00,
2013-05-13 20:26:00,51.0,30.0,30.00,East,90,3.0,5.0,47,0.00,,,0.00,TxWx,2013-05-14 00:26:00,
2013-05-13 20:31:00,51.0,30.0,30.00,ESE,112,3.0,4.0,47,0.00,,,0.00,TxWx,2013-05-14 00:31:00,
2013-05-13 20:36:00,51.0,31.0,30.00,ENE,67,3.0,3.0,48,0.00,,,0.00,TxWx,2013-05-14 00:36:00,
2013-05-13 20:42:00,51.0,31.0,30.00,North,0,1.0,3.0,48,0.00,,,0.00,TxWx,2013-05-14 00:42:00,
2013-05-13 20:47:00,51.0,31.0,30.00,ENE,67,2.0,3.0,48,0.00,,,0.00,TxWx,2013-05-14 00:47:00,
2013-05-13 20:52:00,51.0,31.0,30.01,NNE,22,2.0,2.0,48,0.00,,,0.00,TxWx,2013-05-14 00:52:00,
2013-05-13 20:58:00,51.0,32.0,30.01,NE,45,4.0,4.0,49,0.00,,,0.00,TxWx,2013-05-14 00:58:00,
2013-05-13 21:03:00,51.0,32.0,30.01,East,90,3.0,3.0,49,0.00,,,0.00,TxWx,2013-05-14 01:03:00,
2013-05-13 21:08:00,50.0,31.0,30.01,ENE,67,1.0,2.0,49,0.00,,,0.00,TxWx,2013-05-14 01:08:00,
2013-05-13 21:13:00,50.0,31.0,30.01,NNW,337,3.0,3.0,50,0.00,,,0.00,TxWx,2013-05-14 01:13:00,
2013-05-13 21:19:00,50.0,32.0,30.02,North,0,2.0,3.0,51,0.00,,,0.00,TxWx,2013-05-14 01:19:00,
2013-05-13 21:24:00,49.0,31.0,30.02,NNW,337,3.0,3.0,52,0.00,,,0.00,TxWx,2013-05-14 01:24:00,
2013-05-13 21:29:00,49.0,31.0,30.02,NNE,22,1.0,3.0,52,0.00,,,0.00,TxWx,2013-05-14 01:29:00,
2013-05-13 21:34:00,49.0,32.0,30.02,NW,315,2.0,2.0,52,0.00,,,0.00,TxWx,2013-05-14 01:34:00,
2013-05-13 21:39:00,49.0,32.0,30.02,NNE,22,2.0,2.0,53,0.00,,,0.00,TxWx,2013-05-14 01:39:00,
2013-05-13 21:44:00,48.0,31.0,30.02,North,0,1.0,2.0,53,0.00,,,0.00,TxWx,2013-05-14 01:44:00,
2013-05-13 21:50:00,48.0,31.0,30.03,North,0,2.0,3.0,54,0.00,,,0.00,TxWx,2013-05-14 01:50:00,
2013-05-13 21:55:00,48.0,32.0,30.03,North,0,3.0,3.0,54,0.00,,,0.00,TxWx,2013-05-14 01:55:00,
2013-05-13 22:00:00,48.0,33.0,30.03,NW,315,3.0,3.0,55,0.00,,,0.00,TxWx,2013-05-14 02:00:00,
2013-05-13 22:05:00,47.0,31.0,30.03,NNW,337,3.0,3.0,56,0.00,,,0.00,TxWx,2013-05-14 02:05:00,
2013-05-13 22:10:00,47.0,32.0,30.03,NNW,337,2.0,2.0,57,0.00,,,0.00,TxWx,2013-05-14 02:10:00,
2013-05-13 22:16:00,47.0,33.0,30.03,NNW,337,2.0,3.0,57,0.00,,,0.00,TxWx,2013-05-14 02:16:00,
2013-05-13 22:21:00,46.0,32.0,30.03,NNW,337,2.0,2.0,58,0.00,,,0.00,TxWx,2013-05-14 02:21:00,
2013-05-13 22:26:00,45.0,31.0,30.03,NNW,337,3.0,3.0,59,0.00,,,0.00,TxWx,2013-05-14 02:26:00,
2013-05-13 22:32:00,45.0,32.0,30.03,NW,315,2.0,3.0,61,0.00,,,0.00,TxWx,2013-05-14 02:32:00,
2013-05-13 22:37:00,45.0,33.0,30.03,NNW,337,3.0,3.0,62,0.00,,,0.00,TxWx,2013-05-14 02:37:00,
2013-05-13 22:42:00,44.0,31.0,30.03,North,0,0.0,1.0,62,0.00,,,0.00,TxWx,2013-05-14 02:42:00,
2013-05-13 22:47:00,43.0,30.0,30.04,ENE,67,0.0,1.0,63,0.00,,,0.00,TxWx,2013-05-14 02:47:00,
2013-05-13 22:52:00,43.0,31.0,30.04,NNW,337,1.0,2.0,64,0.00,,,0.00,TxWx,2013-05-14 02:52:00,
2013-05-13 22:58:00,42.0,30.0,30.04,NW,315,1.0,1.0,65,0.00,,,0.00,TxWx,2013-05-14 02:58:00,
2013-05-13 23:03:00,42.0,30.0,30.04,NW,315,0.0,1.0,66,0.00,,,0.00,TxWx,2013-05-14 03:03:00,
2013-05-13 23:08:00,42.0,31.0,30.04,East,90,0.0,0.0,67,0.00,,,0.00,TxWx,2013-05-14 03:08:00,
2013-05-13 23:13:00,41.0,30.0,30.04,NNW,337,0.0,0.0,68,0.00,,,0.00,TxWx,2013-05-14 03:13:00,
2013-05-13 23:18:00,41.0,31.0,30.04,NNW,337,0.0,0.0,69,0.00,,,0.00,TxWx,2013-05-14 03:18:00,
2013-05-13 23:24:00,41.0,31.0,30.04,NNW,337,0.0,1.0,70,0.00,,,0.00,TxWx,2013-05-14 03:24:00,
2013-05-13 23:29:00,41.0,32.0,30.04,NNE,22,1.0,1.0,71,0.00,,,0.00,TxWx,2013-05-14 03:29:00,
2013-05-13 23:34:00,40.0,30.0,30.04,NNE,22,1.0,1.0,71,0.00,,,0.00,TxWx,2013-05-14 03:34:00,
2013-05-13 23:40:00,40.0,31.0,30.04,NNW,337,1.0,1.0,72,0.00,,,0.00,TxWx,2013-05-14 03:40:00,
2013-05-13 23:45:00,40.0,31.0,30.04,NNE,22,1.0,1.0,73,0.00,,,0.00,TxWx,2013-05-14 03:45:00,
2013-05-13 23:50:00,40.0,32.0,30.04,North,0,0.0,1.0,73,0.00,,,0.00,TxWx,2013-05-14 03:50:00,
2013-05-13 23:55:00,40.0,32.0,30.04,ENE,67,0.0,0.0,74,0.00,,,0.00,TxWx,2013-05-14 03:55:00,